Location: Poughquag
(41.6090°N, 73.6820°W)
Time: 12:53:46
(UTC-04:00)

Tiros 1 despin weight - Pass Details

Date: 04 June 2020
Orbit: 593 x 642 km, 48.2° (Epoch: 07 July)

Event Time Altitude Azimuth Distance (km) Brightness Sun altitude
Rises 15:33:32 0° 295° (WNW) 2,889 ? 51.5°
Reaches altitude 10° 15:35:56 10° 289° (WNW) 1,972 ? 51.1°
Maximum altitude 15:40:15 45° 217° (SW) 824 ? 50.3°
Drops below altitude 10° 15:44:30 10° 144° (SE) 1,935 ? 49.6°
Sets 15:46:50 0° 138° (SE) 2,828 ? 49.2°
